Location: Budapest
(47.4979°N, 19.0402°E)
Time: 17:14:54
(UTC+02:00)

Envisat - Pass Details

Date: 16 October 2017
Orbit: 764 x 766 km, 98.2° (Epoch: 23 October)

Event Time Altitude Azimuth Distance (km) Brightness Sun altitude
Exits shadow 18:25:11 - 82° (E) 2,543 5.0 -6.0°
Reaches altitude 10° 18:26:52 10° 64° (ENE) 2,309 4.9 -6.3°
Maximum altitude 18:27:56 11° 52° (NE) 2,265 4.9 -6.5°
Drops below altitude 10° 18:29:00 10° 40° (NE) 2,311 5.1 -6.7°
Sets 18:33:24 0° 4° (N) 3,244 6.1 -7.4°
